Weather Roundup
Issued by NWS

Home | Current Version | Previous Version | Graphics & Text | Print | Product List | Glossary Off
Versions: 1 2 3 4 5 6 7 8 9 10 11 12 13 14 15 16 17 18 19 20 21 22 23 24 25 26 27 28 29 30 31 32 33 34 35 36 37 38 39 40 41 42 43 44 45 46 47 48 49 50

000
NZUS93 KARX 210059
HRRWXR

CURRENT HOURLY OBSERVATIONS ACROSS
MUCH OF THE UPPER MISSISSIPPI VALLEY
NATIONAL WEATHER SERVICE LA CROSSE WI
800 PM CDT WED SEP 20 2017


...SOUTHEAST MINNESOTA...


CITY           SKY/WX    TMP DP  RH WIND       PRES   REMARKS
ROCHESTER      CLEAR     63  55  75 NW6       29.88S
ROCHESTER/MAYO FAIR      69  54  59 NW3       29.88R
WINONA         CLEAR     66  59  77 CALM      29.86R
AUSTIN         CLEAR     66  54  63 N3        29.88R
ALBERT LEA     CLEAR     64  57  77 CALM      29.88S
DODGE CENTER   CLEAR     63  54  72 CALM      29.89R
PRESTON        CLEAR     66  57  73 CALM      29.88R
OWATONNA       CLEAR     61  54  77 CALM      29.88R
FARIBAULT      CLEAR     57  55  94 CALM      29.88R
$$

...ELSEWHERE IN MINNESOTA...


CITY           SKY/WX    TMP DP  RH WIND       PRES   REMARKS
MINNEAPOLIS    CLEAR     68  51  54 NW7       29.87R
INTNL FALLS    CLEAR     51  44  77 CALM      29.84R
DULUTH         CLEAR     58  48  69 W5        29.88R
RED WING       CLEAR     64  54  68 N3        29.85R
REDWOOD FALLS  CLEAR     65  48  54 E5        29.88R
MANKATO        CLEAR     64  53  67 CALM      29.88S
WORTHINGTON    CLEAR     61  49  64 S3        29.90R HAZE
FAIRMONT       CLEAR     62  52  69 CALM      29.89R
$$

...SOUTHWEST WISCONSIN...


CITY           SKY/WX    TMP DP  RH WIND       PRES   REMARKS
LA CROSSE      NOT AVBL
PRAIRIE DU CHI CLOUDY    74  71  88 CALM      29.81R
BOSCOBEL       LGT RAIN  77  72  84 NE3       29.82R
LONE ROCK      CLOUDY    79  73  83 NW14      29.82R
PLATTEVILLE    CLOUDY    77  72  86 S13       29.85R
FORT MC COY    CLOUDY    70  67  89 NW7       29.85R
MAUSTON-NEW LI LGT RAIN N/A N/A N/A W3        29.81R
VIROQUA        FAIR      71  70  99 NW3       29.86S
WIS DELLS      NOT AVBL
$$

...ELSEWHERE IN WISCONSIN...


CITY           SKY/WX    TMP DP  RH WIND       PRES   REMARKS
MILWAUKEE      PTCLDY    80  69  69 S6        29.83R
MADISON        CLOUDY    83  72  69 S7        29.80S THUNDER
GREEN BAY      HVY RAIN  72  72 100 SE10      29.83R FOG
EAU CLAIRE     NOT AVBL
BLACK RVR FLS  CLOUDY    73  62  67 CALM      29.84R
MEDFORD        MOCLDY    65  61  85 NW3       29.86R
WAUSAU         CLOUDY    70  70 100 NW6       29.86R FOG
WIS RAPIDS     CLOUDY    70  69  97 CALM      29.85R
MARSHFIELD     MOCLDY    68  64  87 NE5       29.88R
RICE LAKE      CLEAR     61  55  81 CALM      29.88R
$$

...NORTHEAST IOWA...


CITY           SKY/WX    TMP DP  RH WIND       PRES   REMARKS
WATERLOO       PTCLDY    69  65  86 N3        29.83R
DUBUQUE        CLOUDY    73  70  90 S10       29.85R THUNDER
DECORAH        MOCLDY    70  63  78 N6        29.85S
MASON CITY     CLEAR     63  54  72 NW5       29.89R
CHARLES CITY   CLEAR     68  59  73 N6        29.87R
OELWEIN        CLOUDY    73  70  88 N6        29.85R
$$

...ELSEWHERE IN IOWA...


CITY           SKY/WX    TMP DP  RH WIND       PRES   REMARKS
DES MOINES     PTCLDY    78  61  55 N5        29.82S
IOWA CITY      CLOUDY    84  71  65 W7        29.81R
FORT DODGE     CLEAR     67  56  67 CALM      29.88R
MARSHALLTOWN   CLEAR     73  64  73 N7        29.83R
CEDAR RAPIDS   CLOUDY    80  71  74 W8        29.80R
$$

...NORTHERN ILLINOIS...


CITY           SKY/WX    TMP DP  RH WIND       PRES   REMARKS
CHICAGO-OHARE  PTCLDY    84  66  54 S10       29.85R
CHICAGO-MIDWAY PTCLDY    87  67  51 S12       29.85S HX  90
MOLINE         CLOUDY    86  69  56 NW9       29.83R THUNDER HX  90
ROCKFORD       CLOUDY    78  67  68 S6        29.85R
PEORIA         CLEAR     84  69  60 S10       29.85R
$$

NOTE: "FAIR" INDICATES FEW OR NO CLOUDS BELOW 12,000 FEET WITH NO
SIGNIFICANT WEATHER AND/OR OBSTRUCTIONS TO VISIBILITY. WIND
SPEEDS ARE IN MILES-PER-HOUR.




USA.gov is the U.S. government's official web portal to all federal, state and local government web resources and services.